Location: Casilda
(33.0440°S, 61.1680°W)
Time: 12:43:06
(UTC-03:00)

ISS - Pass Details

Date: 23 May 2020
Orbit: 417 x 420 km, 51.6° (Epoch: 26 May)

Event Time Altitude Azimuth Distance (km) Brightness Sun altitude
Exits shadow 07:06:41 12° 279° (W) 1,404 -1.6 -10.1°
Maximum altitude 07:09:25 30° 218° (SW) 789 -2.8 -9.5°
Drops below altitude 10° 07:12:30 10° 154° (SSE) 1,524 -0.8 -8.9°
Sets 07:14:47 0° 143° (SE) 2,394 0.3 -8.5°
